Location: Oshawa
(43.9000°N, 78.8670°W)
Time: 06:53:14
(UTC-05:00)

Cosmos 1707 Rocket - Visible Passes

Search period start: 20 January 2017 00:00
Search period end: 30 January 2017 00:00
Orbit: 604 x 633 km, 82.5° (Epoch: 19 January)

Date Brightness Start Highest point End Pass type
(mag) Time Alt. Az. Time Alt. Az. Time Alt. Az.
20 Jan 4.8 17:58:11 10° NNE 18:01:24 20° ENE 18:04:37 10° ESE visible
20 Jan 5.0 19:35:24 10° NNW 19:39:23 37° W 19:43:22 10° SSW visible
21 Jan 6.8 06:33:02 10° ESE 06:34:37 12° E 06:36:12 10° ENE visible
21 Jan 4.1 18:14:50 10° N 18:18:50 35° ENE 18:22:49 10° SE visible
21 Jan 6.1 19:53:14 10° NW 19:56:27 21° W 19:59:39 10° SW visible
22 Jan 6.4 06:48:17 10° SE 06:51:35 21° E 06:54:53 10° NE visible
22 Jan 3.4 18:31:51 10° N 18:36:10 65° E 18:40:28 10° SSE visible
22 Jan 6.8 20:12:03 10° WNW 20:13:24 11° W 20:14:46 10° W visible
23 Jan 5.3 07:04:36 10° SSE 07:08:39 38° E 07:12:41 10° NNE visible
23 Jan 3.9 18:49:05 10° NNW 18:53:24 67° W 18:57:42 10° S visible
24 Jan 5.2 19:06:35 10° NNW 19:10:32 35° W 19:14:30 10° SSW visible
25 Jan 6.8 06:04:00 10° ESE 06:05:45 12° E 06:07:31 10° ENE visible
25 Jan 4.1 17:45:58 10° N 17:50:01 36° ENE 17:54:02 10° SE visible
25 Jan 6.3 19:24:27 10° NW 19:27:36 20° W 19:30:44 10° SW visible
26 Jan 6.3 06:19:23 10° SE 06:22:44 22° E 06:26:05 10° NE visible
26 Jan 3.5 18:02:59 10° N 18:07:20 68° E 18:11:40 10° SSE visible
26 Jan 7.0 19:43:27 10° WNW 19:44:33 11° W 19:45:39 10° W visible
27 Jan 5.1 06:35:45 10° SSE 06:39:48 39° E 06:43:52 10° NNE visible
27 Jan 4.0 18:20:15 10° NNW 18:24:34 64° W 18:28:52 10° S visible
28 Jan 3.8 06:52:37 10° S 06:56:58 75° E 07:01:18 10° NNE visible
28 Jan 5.4 18:37:46 10° NNW 18:41:42 34° W 18:45:38 10° SSW visible
29 Jan 6.8 05:35:00 10° ESE 05:36:54 13° E 05:38:49 10° ENE visible
29 Jan 6.5 18:55:40 10° NW 18:58:45 19° W 19:01:49 10° SW visible
